Weather in Kopanovo

Russia / Ryazan Oblast     54°35′42″N   41°03′25″E
temp.,
°C
wind,
m/s
gust,
m/s
humid.,
%
clouds,
%
prec.,
mm/h
press.,
hPa
HPBL,
m
9 december, thu
thu900:000e2496100 0.0 1017111
03:000ne2299100 0.3 101898
06:00−1nne3598100 0.1 1018212
09:00−3n5795100 0.4 1020252
12:00−3nne4792100 0.3 1021289
15:00−3nne589293 0.3 1022334
18:00−5nne5109385 0.0 1025373
21:00−7nne5109133 0.0 1026315
10 december, fri
fri1000:00−8nne48885 0.0 1028284
03:00−8nne48845 0.0 1029246
06:00−8ne49835 0.0 1030282
09:00−8ne48835 0.0 1032266
12:00−6ene46765 0.0 1032320
15:00−6ne48835 0.0 1032316
18:00−8ene49855 0.0 1034298
21:00−9ene49855 0.0 1034273
11 december, sat
sat1100:00−9ene39855 0.0 1035256
03:00−9ene38865 0.0 1035235
06:00−9e39855 0.0 1035229
09:00−9e49855 0.0 1036243
12:00−7e410785 0.0 1036300
15:00−6e410775 0.0 1036279
18:00−7e411795 0.0 1036263
21:00−7ese411785 0.0 1037252
12 december, sun
sun1200:00−7ese411775 0.0 1037244
03:00−8ese38835 0.0 1038166
06:00−8ese49805 0.0 1038185
09:00−8se39805 0.0 1038198
12:00−5se397836 0.0 1039287
15:00−5se38818 0.0 1038181
18:00−6se38855 0.0 1039161
21:00−6se410809 0.0 1038192
13 december, mon
mon1300:00−6se410749 0.0 1038209
03:00−6se4107311 0.0 1038205
06:00−6se41172100 0.0 1037238
09:00−7se41173100 0.0 1037261
12:00−5se51367100 0.0 1035345
15:00−4se51266100 0.0 1035315
18:00−4se51265100 0.0 1034318
21:00−4se51365100 0.0 1033345